NOAA-18
1 28654U 05018A 10216.93247241 -.00000136 00000-0 -50130-4 0 04328
2 28654 098.9512 163.0615 0013401 277.7821 082.1838 14.11375306268317
NOAA-19
1 33591U 09005A 10216.93116871 -.00000161 00000-0 -65414-4 0 06307
2 33591 098.7890 158.0202 0014440 147.3570 212.8489 14.11071569076789
HUBBLE
1 20580U 90037B 10216.58644794 .00000488 00000-0 24548-4 0 6210
2 20580 028.4695 283.8869 0003357 000.6659 359.3930 15.01008823912034
ISS
1 25544U 98067A 10217.91454058 .00015425 00000-0 12214-3 0 6534
2 25544 051.6468 336.1249 0006933 185.3953 273.8915 15.71523797671292
CO-58
1 28895U 05043F 10216.64370311 .00000325 00000-0 77057-4 0 06480
2 28895 098.0085 099.5002 0019039 131.1914 229.0957 14.59916950254050
FALCON
1 30776U 07006E 10216.88311953 .00000790 00000-0 59431-4 0 08962
2 30776 035.4326 108.6325 0001611 277.8894 082.1645 15.03742635187397
MAST
1 31126U 07012K 10217.64609851 .00000098 00000-0 32169-4 0 9300
2 31126 097.9337 257.0929 0095848 072.5485 288.6152 14.53607510175245
CAPE1
1 31130U 07012P 10216.78094540 .00000038 00000-0 19135-4 0 09517
2 31130 097.9357 253.5856 0104568 083.8659 277.4404 14.52204418174716
COMPASS
1 32787U 08021E 10216.17677516 .00000050 00000-0 12958-4 0 07428
2 32787 097.8909 280.2676 0016687 126.6295 233.6441 14.81923144122602
AAUSAT2
1 32788U 08021F 10217.66047847 .00000156 00000-0 26292-4 0 7346
2 32788 097.8910 281.8691 0016528 123.0980 237.1815 14.82069997122832
DO-64
1 32789U 08021G 10216.71912671 .00000301 00000-0 44321-4 0 7512
2 32789 097.8979 281.4700 0016598 124.1737 236.1045 14.82235165122694
CO-66
1 32791U 08021J 10217.69148818 .00000703 00000-0 95722-4 0 7356
2 32791 097.8914 281.7697 0016919 120.2751 240.0156 14.81705097122786
RS-30
1 32953U 08025A 10217.79121224 .00000010 00000-0 00000 0 0 9288
2 32953 082.5031 358.8268 0018752 357.8771 002.2229 12.43006949 99906
TACSAT-3
1 35001U 09028A 10217.65536273 .00004812 00000-0 11407-3 0 3519
2 35001 040.4556 276.8754 0021079 012.1064 348.0254 15.42205169 68271
PHARMSAT
1 35002U 09028B 10217.52820030 .00004455 00000-0 10408-3 0 3314
2 35002 040.4698 275.4657 0024827 015.3268 344.8296 15.42688499 68272
HAWKSAT1
1 35003U 09028C 10216.55710228 .00007996 00000-0 16233-3 0 03601
2 35003 040.4619 274.6266 0022002 025.2724 334.9163 15.46171552068200
CP6
1 35004U 09028D 10217.36500589 .00010633 00000-0 20725-3 0 3512
2 35004 040.4612 268.4205 0019165 035.2567 325.0021 15.47172334 68338
AEROCUB3
1 35005U 09028E 10217.16320054 .00033600 00000-0 49866-3 0 4009
2 35005 040.4688 264.5020 0019027 053.4675 306.7880 15.54262055 68363
CASTOR
1 35694U 09038F 10217.66217299 .00477454 11810-4 27464-3 0 6179
2 35694 051.6298 292.9015 0007628 358.8357 001.2733 16.18241564 59020
METEOR-M
1 35865U 09049A 10217.74627673 .00000176 00000-0 10000-3 0 5323
2 35865 098.7548 271.1826 0001648 214.7898 145.3144 14.21831103 45763
RS-38
1 35869U 09049E 10217.78276443 .00000177 00000-0 10000-3 0 5462
2 35869 098.7534 271.2541 0003902 214.2368 145.8521 14.21986210 45774
